RYR118 LHBP-LOWW

Flight info

Callsign RYR118
Flight time 0h 30m
Altitude 18000
Route GILEP2L GILEP DCT NATEX NATEX2W
Aircraft B738/M-SDGIJ1LRWY/SB1

Departure

Time 2026-05-07 19:11
Airport Budapest Liszt Ferenc International Airport (LHBP)

Arrival

Time 2026-05-07 19:41
Airport Vienna International Airport (LOWW)
Time Latitude Longitude Altitude Speed Heading
2026-05-07 19:02 47.43579 19.26071 474 ft 0 kts 311°
2026-05-07 19:07 47.43590 19.26053 474 ft 9 kts 311°
2026-05-07 19:08 47.43561 19.25930 474 ft 14 kts 226°
2026-05-07 19:08 47.43501 19.25838 471 ft 13 kts 239°
2026-05-07 19:08 47.43524 19.25738 470 ft 9 kts 313°
2026-05-07 19:08 47.43531 19.25647 468 ft 12 kts 236°
2026-05-07 19:09 47.43469 19.25553 467 ft 14 kts 223°
2026-05-07 19:09 47.43377 19.25428 465 ft 19 kts 221°
2026-05-07 19:09 47.43270 19.25286 460 ft 20 kts 222°
2026-05-07 19:09 47.43160 19.25138 454 ft 22 kts 223°
2026-05-07 19:10 47.43098 19.24971 448 ft 22 kts 285°
2026-05-07 19:10 47.43283 19.24638 439 ft 76 kts 311°
2026-05-07 19:10 47.43815 19.23777 438 ft 145 kts 312°
2026-05-07 19:10 47.44534 19.22593 942 ft 160 kts 310°
2026-05-07 19:11 47.45300 19.21384 1707 ft 164 kts 312°
2026-05-07 19:11 47.46103 19.20136 2292 ft 174 kts 310°
2026-05-07 19:11 47.46946 19.18771 2769 ft 188 kts 310°
2026-05-07 19:11 47.47853 19.17290 3250 ft 204 kts 310°
2026-05-07 19:12 47.48735 19.15551 3705 ft 221 kts 292°
2026-05-07 19:12 47.49009 19.13286 4280 ft 232 kts 265°
2026-05-07 19:12 47.48595 19.10936 4801 ft 247 kts 245°
2026-05-07 19:12 47.47592 19.08802 5389 ft 260 kts 223°
2026-05-07 19:13 47.46049 19.07353 6140 ft 267 kts 207°
2026-05-07 19:13 47.44350 19.06235 6929 ft 270 kts 205°
2026-05-07 19:13 47.42627 19.05135 7733 ft 273 kts 205°
2026-05-07 19:13 47.40893 19.03970 8514 ft 276 kts 206°
2026-05-07 19:14 47.39161 19.02759 9293 ft 278 kts 206°
2026-05-07 19:14 47.37418 19.01520 10069 ft 281 kts 207°
2026-05-07 19:14 47.35627 19.00240 10642 ft 291 kts 207°
2026-05-07 19:14 47.33781 18.98919 11097 ft 305 kts 207°
2026-05-07 19:15 47.31887 18.97331 11523 ft 319 kts 219°
2026-05-07 19:15 47.30494 18.94777 11931 ft 333 kts 244°
2026-05-07 19:15 47.29955 18.91404 12340 ft 350 kts 268°
2026-05-07 19:15 47.30399 18.87807 12750 ft 367 kts 288°
2026-05-07 19:16 47.31442 18.84294 13386 ft 376 kts 293°
2026-05-07 19:16 47.32613 18.80870 14160 ft 380 kts 295°
2026-05-07 19:16 47.33837 18.77383 14863 ft 386 kts 294°
2026-05-07 19:16 47.35066 18.73836 15607 ft 390 kts 293°
2026-05-07 19:17 47.36283 18.70243 16336 ft 394 kts 292°
2026-05-07 19:17 47.37493 18.66611 17051 ft 399 kts 292°
2026-05-07 19:17 47.38702 18.62935 17692 ft 403 kts 291°
2026-05-07 19:17 47.39924 18.59190 17973 ft 406 kts 291°
2026-05-07 19:18 47.41143 18.55437 17984 ft 404 kts 291°
2026-05-07 19:18 47.42352 18.51713 17982 ft 403 kts 291°
2026-05-07 19:18 47.43562 18.47974 17984 ft 403 kts 291°
2026-05-07 19:18 47.44777 18.44216 17984 ft 402 kts 291°
2026-05-07 19:19 47.45992 18.40454 17984 ft 403 kts 291°
2026-05-07 19:19 47.47190 18.36741 17982 ft 403 kts 291°
2026-05-07 19:19 47.48394 18.33004 17984 ft 402 kts 291°
2026-05-07 19:19 47.49601 18.29255 17987 ft 410 kts 291°
2026-05-07 19:20 47.50855 18.25337 17981 ft 425 kts 291°
2026-05-07 19:20 47.52111 18.21410 17980 ft 425 kts 291°
2026-05-07 19:20 47.53383 18.17447 17978 ft 425 kts 291°
2026-05-07 19:20 47.54651 18.13494 17981 ft 426 kts 291°
2026-05-07 19:21 47.55920 18.09531 17978 ft 425 kts 291°
2026-05-07 19:21 47.57179 18.05594 17981 ft 424 kts 291°
2026-05-07 19:21 47.58449 18.01611 17987 ft 426 kts 291°
2026-05-07 19:21 47.59712 17.97644 17972 ft 426 kts 291°
2026-05-07 19:22 47.60965 17.93707 17947 ft 414 kts 291°
2026-05-07 19:22 47.62172 17.89917 17750 ft 398 kts 291°
2026-05-07 19:22 47.63337 17.86253 17527 ft 384 kts 291°
2026-05-07 19:22 47.64457 17.82721 17226 ft 374 kts 291°
2026-05-07 19:23 47.65549 17.79253 16615 ft 373 kts 292°
2026-05-07 19:23 47.66638 17.75785 16043 ft 370 kts 292°
2026-05-07 19:23 47.67711 17.72358 15455 ft 367 kts 292°
2026-05-07 19:23 47.68785 17.68933 14954 ft 363 kts 292°
2026-05-07 19:24 47.69842 17.65559 14392 ft 360 kts 293°
2026-05-07 19:24 47.70896 17.62196 14021 ft 355 kts 293°
2026-05-07 19:24 47.71935 17.58882 13595 ft 352 kts 293°
2026-05-07 19:24 47.72953 17.55625 12886 ft 355 kts 294°
2026-05-07 19:25 47.73970 17.52255 12256 ft 353 kts 293°
2026-05-07 19:25 47.75142 17.49083 12002 ft 347 kts 303°
2026-05-07 19:25 47.76572 17.46191 11989 ft 352 kts 307°
2026-05-07 19:25 47.78103 17.43345 11987 ft 352 kts 308°
2026-05-07 19:26 47.79622 17.40501 11949 ft 347 kts 307°
2026-05-07 19:26 47.81071 17.37695 11637 ft 339 kts 308°
2026-05-07 19:26 47.82460 17.34922 11438 ft 327 kts 306°
2026-05-07 19:26 47.83788 17.32213 11013 ft 323 kts 306°
2026-05-07 19:27 47.85096 17.29516 10521 ft 322 kts 306°
2026-05-07 19:27 47.86388 17.26844 10235 ft 310 kts 306°
2026-05-07 19:27 47.87618 17.24293 9946 ft 297 kts 306°
2026-05-07 19:27 47.88792 17.21861 9729 ft 286 kts 307°
2026-05-07 19:28 47.89948 17.19468 9322 ft 285 kts 307°
2026-05-07 19:28 47.91096 17.17082 8942 ft 284 kts 307°
2026-05-07 19:28 47.92245 17.14706 8562 ft 282 kts 307°
2026-05-07 19:28 47.93378 17.12353 8196 ft 280 kts 307°
2026-05-07 19:29 47.94509 17.09989 7832 ft 278 kts 307°
2026-05-07 19:29 47.95630 17.07654 7467 ft 276 kts 307°
2026-05-07 19:29 47.96742 17.05347 7125 ft 274 kts 307°
2026-05-07 19:29 47.97833 17.03077 6772 ft 272 kts 307°
2026-05-07 19:30 47.98947 17.00799 6415 ft 269 kts 310°
2026-05-07 19:30 48.00213 16.98769 6043 ft 267 kts 317°
2026-05-07 19:30 48.01570 16.96925 5962 ft 262 kts 319°
2026-05-07 19:30 48.02925 16.95082 5966 ft 267 kts 318°
2026-05-07 19:31 48.04266 16.93173 5970 ft 265 kts 316°
2026-05-07 19:31 48.05587 16.91241 5965 ft 268 kts 316°
2026-05-07 19:31 48.06907 16.89287 5975 ft 268 kts 316°
2026-05-07 19:31 48.08239 16.87309 5973 ft 269 kts 316°
2026-05-07 19:32 48.09549 16.85363 5973 ft 266 kts 316°
2026-05-07 19:32 48.10852 16.83431 5978 ft 266 kts 316°
2026-05-07 19:32 48.12170 16.81478 5958 ft 265 kts 316°
2026-05-07 19:32 48.13477 16.79541 5705 ft 262 kts 316°
2026-05-07 19:33 48.14766 16.77624 5336 ft 261 kts 316°
2026-05-07 19:33 48.16053 16.75711 4979 ft 261 kts 315°
2026-05-07 19:33 48.17331 16.73814 4634 ft 259 kts 315°
2026-05-07 19:33 48.18598 16.71927 4272 ft 258 kts 315°
2026-05-07 19:34 48.19869 16.70031 3959 ft 256 kts 315°
2026-05-07 19:34 48.21130 16.68162 3598 ft 255 kts 315°
2026-05-07 19:34 48.22477 16.66450 3223 ft 255 kts 326°
2026-05-07 19:34 48.24089 16.65412 2981 ft 254 kts 343°
2026-05-07 19:35 48.25805 16.64774 2978 ft 257 kts 345°
2026-05-07 19:35 48.27542 16.64123 2969 ft 254 kts 341°
2026-05-07 19:35 48.29001 16.62902 2979 ft 234 kts 314°
2026-05-07 19:35 48.29781 16.60916 2971 ft 215 kts 282°
2026-05-07 19:36 48.29733 16.58759 2977 ft 199 kts 258°
2026-05-07 19:36 48.29384 16.56837 2977 ft 188 kts 255°
2026-05-07 19:36 48.28982 16.54933 2976 ft 192 kts 246°
2026-05-07 19:36 48.28102 16.53460 2979 ft 197 kts 211°
2026-05-07 19:37 48.26825 16.52817 2984 ft 191 kts 196°
2026-05-07 19:37 48.25554 16.52489 2973 ft 179 kts 186°
2026-05-07 19:37 48.24323 16.52661 2983 ft 179 kts 170°
2026-05-07 19:37 48.23118 16.53131 2891 ft 179 kts 168°
2026-05-07 19:38 48.21929 16.53624 2648 ft 171 kts 168°
2026-05-07 19:38 48.20832 16.54085 2442 ft 157 kts 167°
2026-05-07 19:38 48.19775 16.54532 2210 ft 157 kts 168°
2026-05-07 19:38 48.18749 16.54963 1989 ft 151 kts 168°
2026-05-07 19:39 48.17728 16.55397 1789 ft 153 kts 168°
2026-05-07 19:39 48.16713 16.55826 1583 ft 150 kts 168°
2026-05-07 19:39 48.15699 16.56238 1359 ft 152 kts 169°
2026-05-07 19:39 48.15021 16.56503 1259 ft 148 kts 169°
2026-05-07 19:40 48.13701 16.57060 965 ft 150 kts 166°
2026-05-07 19:40 48.12722 16.57497 797 ft 144 kts 166°
2026-05-07 19:40 48.11775 16.57914 632 ft 139 kts 167°
2026-05-07 19:40 48.10904 16.58274 596 ft 106 kts 162°
2026-05-07 19:41 48.10446 16.58460 600 ft 41 kts 169°
2026-05-07 19:41 48.10223 16.58432 600 ft 16 kts 192°
2026-05-07 19:41 48.10142 16.58399 601 ft 8 kts 212°
2026-05-07 19:41 48.10122 16.58370 602 ft 0 kts 227°
2026-05-07 19:42 48.10113 16.58351 602 ft 0 kts 244°
2026-05-07 19:42 48.10119 16.58325 603 ft 9 kts 307°
2026-05-07 19:42 48.10251 16.58268 603 ft 28 kts 342°
2026-05-07 19:43 48.10452 16.58188 603 ft 33 kts 345°
2026-05-07 19:43 48.10684 16.58088 600 ft 34 kts 343°
2026-05-07 19:43 48.10916 16.57989 597 ft 34 kts 345°
2026-05-07 19:43 48.11122 16.57830 596 ft 33 kts 300°
2026-05-07 19:44 48.11216 16.57521 598 ft 31 kts 296°
2026-05-07 19:44 48.11312 16.57237 604 ft 29 kts 297°
2026-05-07 19:44 48.11375 16.57042 605 ft 16 kts 296°
2026-05-07 19:44 48.11413 16.56928 605 ft 5 kts 297°
2026-05-07 19:45 48.11432 16.56873 605 ft 6 kts 298°
2026-05-07 19:45 48.11466 16.56855 605 ft 5 kts 33°
2026-05-07 19:45 48.11537 16.56933 605 ft 17 kts 48°
2026-05-07 19:45 48.11521 16.57095 605 ft 16 kts 116°
2026-05-07 19:46 48.11473 16.57245 604 ft 11 kts 116°
2026-05-07 19:46 48.11423 16.57275 603 ft 7 kts 203°
2026-05-07 19:46 48.11400 16.57259 604 ft 2 kts 204°
2026-05-07 19:46 48.11391 16.57253 604 ft 0 kts 206°